GFSNGP_prec_precacc12_189.txt.gz
Total_Precipitation_Accumulation
0.02 0.01 0.00 0.00 0.01 0.00 0.01 0.04 0.21 0.13 0.02 0.00 0.00 0.00 0.04 0.03 0.00 0.00 0.00 0.01 0.02 0.03 0.01 0.00 0.00 0.01 0.02 0.02 0.01 0.01 0.00 0.00 0.00 0.00 0.00 0.00 0.00 0.00 0.00 0.00 0.00 0.00 0.00 0.00
0.08 0.02 0.03 0.06 0.04 0.01 0.00 0.00 0.00 0.01 0.01 0.00 0.00 0.00 0.01 0.01 0.01 0.00 0.00 0.00 0.00 0.00 0.00 0.00 0.00 0.02 0.02 0.01 0.00 0.00 0.00 0.00 0.01 0.01 0.02 0.02 0.01 0.00 0.00 0.00 0.00 0.00 0.00 0.00
0.28 0.08 0.19 0.27 0.05 0.02 0.00 0.00 0.00 0.00 0.00 0.00 0.00 0.00 0.00 0.00 0.01 0.01 0.00 0.00 0.00 0.00 0.00 0.00 0.01 0.01 0.02 0.03 0.01 0.00 0.00 0.00 0.00 0.00 0.00 0.01 0.03 0.06 0.07 0.04 0.02 0.01 0.00 0.00
0.26 0.19 0.37 0.07 0.00 0.00 0.00 0.00 0.03 0.01 0.00 0.00 0.01 0.01 0.02 0.03 0.04 0.04 0.02 0.01 0.00 0.00 0.00 0.01 0.02 0.02 0.03 0.03 0.01 0.00 0.00 0.00 0.00 0.00 0.00 0.00 0.01 0.02 0.02 0.01 0.01 0.00 0.00 0.00
0.22 0.15 0.07 0.00 0.00 0.01 0.03 0.02 0.01 0.01 0.02 0.01 0.01 0.07 0.11 0.05 0.03 0.02 0.02 0.07 0.05 0.03 0.01 0.01 0.02 0.03 0.04 0.03 0.02 0.01 0.01 0.00 0.00 0.00 0.00 0.01 0.00 0.00 0.01 0.01 0.01 0.00 0.00 0.00
0.27 0.18 0.04 0.00 0.01 0.02 0.03 0.02 0.02 0.01 0.02 0.03 0.11 0.13 0.15 0.11 0.05 0.03 0.03 0.06 0.03 0.05 0.05 0.02 0.04 0.05 0.04 0.02 0.02 0.02 0.01 0.00 0.00 0.01 0.01 0.01 0.01 0.00 0.00 0.01 0.01 0.00 0.00 0.00
0.54 0.55 0.17 0.02 0.02 0.03 0.07 0.05 0.09 0.12 0.09 0.07 0.14 0.14 0.11 0.10 0.07 0.07 0.13 0.10 0.03 0.01 0.01 0.03 0.03 0.04 0.03 0.02 0.01 0.01 0.00 0.00 0.00 0.00 0.00 0.01 0.01 0.00 0.00 0.00 0.00 0.01 0.00 0.00
0.28 0.46 0.41 0.19 0.14 0.17 0.10 0.13 0.18 0.11 0.03 0.01 0.00 0.01 0.09 0.12 0.12 0.04 0.02 0.01 0.00 0.00 0.00 0.01 0.02 0.01 0.01 0.01 0.00 0.00 0.00 0.00 0.01 0.01 0.00 0.00 0.00 0.02 0.03 0.02 0.03 0.03 0.02 0.00
0.21 0.23 0.22 0.17 0.08 0.06 0.01 0.00 0.01 0.02 0.01 0.00 0.00 0.00 0.02 0.07 0.07 0.02 0.01 0.00 0.00 0.00 0.00 0.01 0.01 0.00 0.00 0.00 0.00 0.00 0.00 0.00 0.01 0.00 0.00 0.00 0.00 0.02 0.03 0.05 0.06 0.06 0.03 0.00
0.28 0.17 0.30 0.25 0.10 0.02 0.00 0.00 0.00 0.00 0.00 0.00 0.00 0.00 0.00 0.04 0.07 0.07 0.05 0.01 0.00 0.00 0.00 0.00 0.00 0.00 0.00 0.00 0.00 0.00 0.00 0.00 0.00 0.00 0.00 0.00 0.01 0.01 0.01 0.02 0.04 0.04 0.02 0.00
0.51 0.30 0.18 0.05 0.01 0.00 0.00 0.00 0.00 0.00 0.00 0.00 0.00 0.00 0.01 0.05 0.20 0.25 0.23 0.11 0.01 0.00 0.00 0.00 0.00 0.00 0.00 0.00 0.00 0.00 0.00 0.00 0.00 0.00 0.00 0.00 0.00 0.01 0.00 0.00 0.00 0.00 0.00 0.00
0.31 0.06 0.05 0.01 0.00 0.00 0.00 0.00 0.00 0.00 0.00 0.00 0.00 0.00 0.02 0.07 0.23 0.26 0.23 0.13 0.04 0.00 0.00 0.00 0.00 0.00 0.00 0.00 0.00 0.00 0.00 0.00 0.00 0.00 0.00 0.00 0.00 0.00 0.00 0.00 0.00 0.00 0.00 0.00
0.05 0.00 0.00 0.00 0.00 0.00 0.00 0.00 0.00 0.00 0.00 0.00 0.00 0.00 0.00 0.04 0.17 0.23 0.06 0.04 0.01 0.01 0.00 0.00 0.00 0.00 0.00 0.00 0.00 0.00 0.00 0.00 0.00 0.00 0.00 0.00 0.00 0.00 0.00 0.00 0.00 0.00 0.00 0.00
0.01 0.00 0.00 0.00 0.00 0.00 0.00 0.00 0.00 0.00 0.00 0.00 0.00 0.02 0.09 0.08 0.13 0.19 0.13 0.04 0.02 0.01 0.01 0.00 0.00 0.00 0.00 0.00 0.00 0.00 0.00 0.00 0.00 0.00 0.00 0.00 0.00 0.00 0.00 0.00 0.00 0.00 0.00 0.00
0.00 0.00 0.00 0.00 0.00 0.00 0.00 0.00 0.00 0.00 0.00 0.00 0.00 0.00 0.05 0.10 0.05 0.09 0.13 0.18 0.07 0.03 0.02 0.03 0.02 0.00 0.00 0.00 0.00 0.00 0.00 0.00 0.00 0.00 0.00 0.00 0.00 0.00 0.00 0.00 0.00 0.00 0.00 0.00
0.00 0.00 0.00 0.00 0.00 0.01 0.00 0.00 0.00 0.00 0.00 0.00 0.00 0.02 0.00 0.01 0.02 0.03 0.03 0.23 0.20 0.06 0.03 0.03 0.01 0.00 0.00 0.00 0.00 0.00 0.00 0.00 0.00 0.00 0.00 0.00 0.00 0.00 0.00 0.00 0.00 0.00 0.00 0.00
0.05 0.06 0.07 0.01 0.01 0.02 0.01 0.01 0.02 0.02 0.02 0.01 0.02 0.05 0.04 0.01 0.00 0.01 0.03 0.06 0.12 0.05 0.01 0.00 0.00 0.00 0.00 0.00 0.00 0.00 0.00 0.00 0.00 0.00 0.00 0.00 0.00 0.00 0.00 0.00 0.00 0.00 0.00 0.00
0.08 0.15 0.14 0.07 0.05 0.06 0.02 0.00 0.00 0.00 0.00 0.00 0.01 0.05 0.10 0.02 0.00 0.00 0.00 0.00 0.02 0.01 0.00 0.00 0.00 0.00 0.00 0.00 0.00 0.00 0.00 0.00 0.00 0.00 0.00 0.00 0.00 0.00 0.00 0.00 0.00 0.00 0.01 0.01
0.03 0.07 0.09 0.08 0.06 0.06 0.01 0.00 0.00 0.00 0.00 0.00 0.00 0.01 0.01 0.01 0.01 0.01 0.02 0.01 0.01 0.01 0.00 0.00 0.00 0.00 0.00 0.00 0.00 0.00 0.00 0.00 0.00 0.00 0.00 0.00 0.00 0.00 0.00 0.00 0.00 0.01 0.01 0.01
0.00 0.00 0.00 0.01 0.01 0.00 0.00 0.00 0.00 0.00 0.00 0.00 0.00 0.01 0.05 0.09 0.09 0.10 0.09 0.07 0.03 0.01 0.00 0.00 0.00 0.00 0.00 0.00 0.00 0.00 0.00 0.00 0.00 0.00 0.00 0.00 0.00 0.00 0.00 0.00 0.00 0.01 0.01 0.03
0.00 0.00 0.00 0.00 0.02 0.02 0.01 0.01 0.01 0.00 0.00 0.00 0.00 0.01 0.04 0.10 0.12 0.14 0.12 0.12 0.09 0.01 0.00 0.00 0.00 0.00 0.00 0.00 0.00 0.00 0.00 0.00 0.00 0.00 0.00 0.00 0.00 0.00 0.00 0.00 0.01 0.01 0.01 0.04
0.00 0.00 0.00 0.00 0.01 0.03 0.06 0.05 0.01 0.00 0.00 0.00 0.00 0.01 0.00 0.00 0.01 0.02 0.02 0.03 0.04 0.01 0.00 0.00 0.00 0.00 0.00 0.00 0.00 0.00 0.00 0.00 0.00 0.00 0.00 0.00 0.00 0.00 0.00 0.00 0.00 0.02 0.04 0.06
0.00 0.00 0.00 0.00 0.00 0.00 0.04 0.10 0.00 0.00 0.00 0.00 0.00 0.00 0.00 0.00 0.00 0.00 0.00 0.01 0.01 0.00 0.00 0.00 0.00 0.00 0.00 0.00 0.00 0.00 0.00 0.00 0.00 0.00 0.00 0.00 0.00 0.01 0.01 0.01 0.02 0.03 0.03 0.03
0.00 0.00 0.00 0.00 0.00 0.00 0.00 0.00 0.00 0.00 0.00 0.00 0.00 0.00 0.00 0.00 0.00 0.00 0.00 0.00 0.00 0.00 0.00 0.00 0.00 0.00 0.00 0.00 0.00 0.00 0.00 0.00 0.00 0.00 0.00 0.00 0.01 0.02 0.03 0.02 0.02 0.02 0.02 0.02
0.00 0.00 0.00 0.00 0.00 0.00 0.00 0.00 0.00 0.00 0.00 0.00 0.00 0.00 0.00 0.00 0.00 0.00 0.00 0.00 0.00 0.00 0.00 0.00 0.00 0.00 0.00 0.00 0.00 0.00 0.00 0.00 0.00 0.00 0.01 0.01 0.02 0.02 0.02 0.02 0.02 0.01 0.01 0.01
0.00 0.00 0.00 0.00 0.00 0.00 0.00 0.00 0.00 0.00 0.00 0.00 0.00 0.00 0.00 0.00 0.00 0.00 0.00 0.00 0.00 0.00 0.00 0.00 0.00 0.00 0.00 0.00 0.00 0.00 0.00 0.00 0.01 0.01 0.01 0.02 0.02 0.01 0.01 0.02 0.02 0.01 0.01 0.01
0.00 0.00 0.00 0.00 0.00 0.01 0.02 0.02 0.01 0.00 0.00 0.00 0.00 0.00 0.00 0.00 0.00 0.00 0.00 0.00 0.00 0.00 0.00 0.00 0.00 0.00 0.00 0.00 0.00 0.00 0.01 0.01 0.01 0.01 0.01 0.01 0.00 0.01 0.01 0.00 0.00 0.01 0.00 0.00

GFSNGP_prec_precacc12_192.txt.gz
Total_Precipitation_Accumulation
0.03 0.02 0.01 0.00 0.00 0.00 0.01 0.03 0.20 0.14 0.05 0.01 0.00 0.00 0.04 0.03 0.00 0.00 0.00 0.01 0.02 0.05 0.12 0.21 0.35 0.34 0.15 0.04 0.02 0.01 0.00 0.00 0.00 0.00 0.00 0.00 0.00 0.00 0.00 0.00 0.00 0.00 0.00 0.00
0.09 0.02 0.03 0.06 0.03 0.01 0.02 0.01 0.01 0.02 0.03 0.00 0.00 0.00 0.01 0.01 0.01 0.00 0.00 0.00 0.00 0.00 0.01 0.03 0.13 0.20 0.12 0.06 0.04 0.01 0.01 0.01 0.01 0.01 0.02 0.02 0.01 0.00 0.00 0.00 0.00 0.00 0.00 0.00
0.28 0.07 0.18 0.26 0.05 0.03 0.02 0.01 0.02 0.01 0.00 0.00 0.00 0.00 0.00 0.00 0.01 0.01 0.00 0.00 0.00 0.00 0.00 0.00 0.02 0.05 0.05 0.05 0.06 0.01 0.01 0.00 0.00 0.00 0.00 0.01 0.03 0.06 0.08 0.07 0.04 0.02 0.01 0.01
0.25 0.15 0.32 0.07 0.01 0.03 0.02 0.00 0.05 0.01 0.01 0.00 0.01 0.01 0.02 0.03 0.05 0.04 0.02 0.01 0.00 0.02 0.01 0.01 0.02 0.02 0.03 0.03 0.02 0.02 0.01 0.00 0.00 0.00 0.00 0.00 0.00 0.03 0.05 0.06 0.07 0.09 0.08 0.04
0.24 0.15 0.05 0.00 0.01 0.02 0.02 0.01 0.02 0.02 0.03 0.01 0.01 0.07 0.10 0.04 0.03 0.02 0.02 0.06 0.03 0.01 0.01 0.01 0.02 0.03 0.04 0.03 0.02 0.02 0.02 0.00 0.00 0.00 0.00 0.00 0.00 0.00 0.01 0.02 0.01 0.04 0.04 0.03
0.30 0.24 0.07 0.00 0.03 0.03 0.05 0.04 0.04 0.03 0.03 0.02 0.10 0.12 0.06 0.01 0.01 0.02 0.03 0.05 0.03 0.04 0.03 0.02 0.03 0.05 0.05 0.03 0.03 0.02 0.01 0.00 0.00 0.00 0.01 0.01 0.01 0.01 0.01 0.01 0.01 0.01 0.01 0.00
0.53 0.59 0.18 0.03 0.05 0.09 0.14 0.09 0.13 0.16 0.14 0.10 0.09 0.04 0.01 0.01 0.01 0.06 0.13 0.10 0.03 0.01 0.01 0.03 0.03 0.04 0.03 0.02 0.02 0.01 0.00 0.00 0.00 0.00 0.00 0.01 0.01 0.01 0.00 0.00 0.00 0.01 0.00 0.00
0.22 0.36 0.34 0.19 0.25 0.28 0.31 0.28 0.20 0.11 0.03 0.01 0.00 0.00 0.00 0.00 0.03 0.03 0.02 0.01 0.00 0.00 0.00 0.01 0.02 0.01 0.01 0.01 0.01 0.00 0.00 0.00 0.01 0.03 0.07 0.07 0.05 0.03 0.03 0.02 0.03 0.04 0.02 0.00
0.19 0.18 0.21 0.26 0.30 0.16 0.09 0.04 0.01 0.02 0.01 0.00 0.00 0.00 0.00 0.00 0.01 0.02 0.01 0.00 0.00 0.00 0.00 0.01 0.02 0.01 0.00 0.00 0.00 0.00 0.01 0.00 0.02 0.06 0.07 0.08 0.03 0.02 0.03 0.05 0.07 0.07 0.04 0.01
0.33 0.19 0.44 0.41 0.17 0.08 0.03 0.00 0.00 0.00 0.00 0.00 0.00 0.00 0.00 0.00 0.00 0.04 0.05 0.01 0.00 0.00 0.00 0.00 0.03 0.16 0.05 0.00 0.00 0.00 0.00 0.00 0.01 0.03 0.03 0.02 0.02 0.02 0.01 0.03 0.04 0.05 0.04 0.01
0.58 0.33 0.24 0.07 0.02 0.01 0.00 0.00 0.00 0.00 0.00 0.00 0.00 0.00 0.00 0.00 0.00 0.06 0.22 0.11 0.00 0.00 0.00 0.00 0.00 0.04 0.11 0.01 0.00 0.00 0.00 0.00 0.00 0.01 0.01 0.01 0.01 0.01 0.01 0.01 0.00 0.01 0.00 0.00
0.36 0.08 0.10 0.02 0.00 0.00 0.00 0.00 0.00 0.00 0.00 0.00 0.00 0.00 0.00 0.00 0.00 0.06 0.23 0.13 0.04 0.00 0.00 0.00 0.00 0.00 0.00 0.00 0.00 0.00 0.00 0.00 0.00 0.00 0.01 0.00 0.01 0.01 0.01 0.00 0.00 0.00 0.00 0.00
0.18 0.08 0.02 0.01 0.00 0.00 0.00 0.00 0.00 0.00 0.00 0.00 0.00 0.00 0.00 0.00 0.03 0.16 0.06 0.04 0.01 0.01 0.00 0.00 0.01 0.01 0.00 0.00 0.00 0.00 0.00 0.00 0.00 0.00 0.00 0.00 0.00 0.00 0.02 0.02 0.02 0.00 0.00 0.00
0.10 0.08 0.02 0.00 0.00 0.00 0.00 0.00 0.00 0.00 0.00 0.00 0.00 0.00 0.00 0.01 0.06 0.13 0.13 0.04 0.02 0.01 0.01 0.01 0.01 0.03 0.00 0.00 0.00 0.00 0.00 0.00 0.00 0.00 0.00 0.00 0.00 0.00 0.00 0.00 0.02 0.01 0.00 0.00
0.04 0.01 0.00 0.00 0.00 0.00 0.00 0.00 0.00 0.00 0.00 0.00 0.00 0.00 0.00 0.01 0.02 0.09 0.13 0.18 0.07 0.06 0.06 0.05 0.04 0.05 0.02 0.00 0.00 0.00 0.00 0.00 0.00 0.00 0.00 0.00 0.00 0.00 0.00 0.00 0.00 0.00 0.00 0.00
0.00 0.00 0.00 0.00 0.00 0.01 0.00 0.00 0.00 0.00 0.00 0.00 0.00 0.01 0.01 0.01 0.02 0.03 0.03 0.25 0.25 0.10 0.07 0.08 0.09 0.08 0.01 0.00 0.00 0.00 0.00 0.00 0.00 0.00 0.00 0.00 0.00 0.00 0.00 0.00 0.00 0.00 0.00 0.00
0.01 0.05 0.07 0.01 0.02 0.02 0.02 0.02 0.02 0.02 0.02 0.01 0.02 0.03 0.04 0.02 0.02 0.03 0.04 0.08 0.27 0.22 0.16 0.11 0.09 0.06 0.01 0.00 0.00 0.00 0.00 0.00 0.00 0.00 0.00 0.00 0.00 0.00 0.00 0.00 0.00 0.00 0.00 0.00
0.03 0.09 0.10 0.06 0.04 0.05 0.03 0.01 0.01 0.00 0.00 0.00 0.00 0.04 0.09 0.02 0.01 0.01 0.01 0.01 0.09 0.14 0.09 0.03 0.01 0.01 0.00 0.00 0.00 0.00 0.00 0.00 0.00 0.00 0.00 0.00 0.00 0.00 0.00 0.00 0.00 0.00 0.00 0.00
0.00 0.00 0.02 0.02 0.01 0.02 0.01 0.00 0.00 0.00 0.00 0.00 0.00 0.01 0.01 0.01 0.01 0.03 0.02 0.03 0.02 0.07 0.04 0.01 0.01 0.00 0.00 0.00 0.00 0.00 0.00 0.00 0.00 0.00 0.00 0.00 0.00 0.00 0.00 0.00 0.00 0.00 0.00 0.00
0.00 0.00 0.00 0.00 0.00 0.00 0.00 0.00 0.00 0.00 0.00 0.00 0.00 0.00 0.00 0.02 0.04 0.08 0.09 0.07 0.03 0.02 0.01 0.00 0.00 0.00 0.00 0.00 0.00 0.00 0.00 0.00 0.00 0.00 0.00 0.00 0.00 0.00 0.00 0.00 0.00 0.00 0.00 0.00
0.00 0.00 0.00 0.00 0.01 0.02 0.01 0.01 0.01 0.00 0.00 0.00 0.00 0.00 0.01 0.04 0.09 0.15 0.20 0.18 0.11 0.01 0.00 0.00 0.00 0.00 0.00 0.00 0.00 0.00 0.00 0.00 0.00 0.00 0.00 0.00 0.00 0.00 0.00 0.00 0.00 0.00 0.00 0.01
0.00 0.00 0.00 0.00 0.00 0.01 0.02 0.04 0.01 0.00 0.00 0.00 0.00 0.01 0.00 0.01 0.01 0.03 0.07 0.13 0.08 0.03 0.02 0.00 0.00 0.00 0.00 0.00 0.00 0.00 0.00 0.00 0.00 0.00 0.00 0.00 0.00 0.00 0.00 0.00 0.00 0.01 0.02 0.04
0.00 0.00 0.00 0.00 0.00 0.00 0.00 0.03 0.00 0.00 0.00 0.00 0.00 0.00 0.00 0.00 0.00 0.00 0.00 0.01 0.02 0.01 0.00 0.00 0.00 0.00 0.00 0.00 0.00 0.00 0.00 0.00 0.00 0.00 0.00 0.00 0.00 0.00 0.00 0.00 0.00 0.02 0.02 0.02
0.00 0.00 0.00 0.00 0.00 0.00 0.00 0.00 0.00 0.00 0.00 0.00 0.00 0.00 0.00 0.00 0.00 0.00 0.00 0.00 0.01 0.01 0.00 0.00 0.00 0.00 0.00 0.00 0.00 0.00 0.00 0.00 0.00 0.00 0.00 0.00 0.00 0.01 0.01 0.01 0.01 0.01 0.01 0.01
0.00 0.00 0.00 0.00 0.00 0.00 0.00 0.00 0.00 0.00 0.00 0.00 0.00 0.00 0.00 0.00 0.00 0.00 0.00 0.00 0.00 0.00 0.00 0.00 0.00 0.00 0.00 0.00 0.00 0.00 0.00 0.00 0.00 0.00 0.00 0.00 0.01 0.01 0.02 0.02 0.01 0.01 0.01 0.01
0.00 0.00 0.00 0.00 0.00 0.00 0.01 0.00 0.01 0.00 0.00 0.00 0.00 0.00 0.00 0.00 0.00 0.00 0.00 0.00 0.00 0.00 0.00 0.00 0.00 0.00 0.00 0.00 0.00 0.00 0.00 0.00 0.00 0.00 0.00 0.01 0.01 0.01 0.01 0.02 0.01 0.01 0.01 0.01
0.00 0.00 0.00 0.00 0.00 0.01 0.02 0.02 0.02 0.01 0.01 0.02 0.02 0.00 0.00 0.00 0.00 0.00 0.00 0.00 0.00 0.00 0.00 0.00 0.00 0.00 0.00 0.00 0.00 0.00 0.00 0.00 0.00 0.00 0.00 0.00 0.00 0.01 0.01 0.01 0.01 0.01 0.01 0.01

GFSNGP_prec_precacc12_195.txt.gz
Total_Precipitation_Accumulation
0.03 0.02 0.01 0.00 0.00 0.00 0.01 0.02 0.17 0.12 0.05 0.01 0.00 0.00 0.04 0.03 0.00 0.00 0.00 0.01 0.03 0.06 0.13 0.21 0.36 0.47 0.60 0.48 0.30 0.24 0.16 0.04 0.00 0.00 0.00 0.00 0.00 0.00 0.00 0.00 0.00 0.00 0.00 0.00
0.08 0.02 0.03 0.06 0.03 0.01 0.02 0.01 0.01 0.01 0.03 0.01 0.00 0.00 0.01 0.01 0.01 0.00 0.00 0.00 0.00 0.00 0.01 0.03 0.13 0.31 0.41 0.49 0.28 0.22 0.16 0.04 0.00 0.01 0.02 0.02 0.01 0.00 0.00 0.00 0.00 0.00 0.00 0.00
0.19 0.06 0.16 0.24 0.05 0.03 0.02 0.01 0.03 0.02 0.01 0.00 0.00 0.00 0.01 0.01 0.01 0.01 0.00 0.00 0.00 0.01 0.01 0.00 0.03 0.10 0.25 0.34 0.29 0.27 0.12 0.10 0.01 0.00 0.00 0.01 0.03 0.06 0.09 0.08 0.04 0.02 0.02 0.01
0.20 0.12 0.22 0.04 0.01 0.07 0.05 0.01 0.06 0.01 0.01 0.00 0.01 0.01 0.02 0.03 0.08 0.05 0.02 0.01 0.02 0.04 0.05 0.02 0.02 0.02 0.14 0.22 0.17 0.18 0.09 0.23 0.05 0.00 0.00 0.00 0.00 0.02 0.05 0.08 0.09 0.11 0.10 0.07
0.23 0.14 0.04 0.00 0.06 0.14 0.10 0.05 0.03 0.04 0.05 0.01 0.01 0.07 0.10 0.08 0.06 0.02 0.00 0.00 0.01 0.00 0.00 0.01 0.01 0.03 0.04 0.04 0.05 0.11 0.09 0.07 0.07 0.00 0.00 0.00 0.00 0.00 0.01 0.02 0.02 0.04 0.05 0.05
0.29 0.27 0.08 0.01 0.03 0.04 0.07 0.07 0.10 0.26 0.11 0.05 0.11 0.14 0.06 0.02 0.00 0.00 0.00 0.00 0.00 0.01 0.01 0.01 0.02 0.03 0.04 0.03 0.03 0.03 0.03 0.04 0.06 0.05 0.00 0.00 0.00 0.00 0.01 0.01 0.01 0.01 0.01 0.01
0.39 0.55 0.17 0.03 0.05 0.13 0.30 0.33 0.44 0.30 0.21 0.14 0.11 0.02 0.00 0.00 0.00 0.00 0.00 0.03 0.03 0.00 0.00 0.01 0.02 0.03 0.03 0.02 0.02 0.01 0.00 0.00 0.02 0.01 0.00 0.00 0.01 0.01 0.01 0.01 0.01 0.02 0.01 0.00
0.07 0.17 0.18 0.14 0.21 0.36 0.46 0.42 0.22 0.10 0.03 0.00 0.00 0.00 0.00 0.00 0.00 0.00 0.00 0.00 0.00 0.00 0.00 0.01 0.02 0.01 0.01 0.01 0.01 0.00 0.00 0.00 0.01 0.03 0.07 0.08 0.06 0.05 0.04 0.03 0.04 0.05 0.02 0.00
0.16 0.15 0.18 0.25 0.46 0.29 0.32 0.25 0.03 0.01 0.01 0.00 0.00 0.00 0.00 0.00 0.00 0.00 0.00 0.00 0.00 0.00 0.00 0.01 0.02 0.01 0.00 0.00 0.00 0.00 0.01 0.01 0.02 0.06 0.08 0.09 0.14 0.14 0.06 0.06 0.07 0.07 0.04 0.01
0.20 0.13 0.43 0.42 0.19 0.15 0.16 0.06 0.00 0.00 0.00 0.00 0.00 0.00 0.00 0.00 0.00 0.00 0.00 0.00 0.00 0.00 0.00 0.00 0.03 0.16 0.09 0.02 0.00 0.00 0.01 0.02 0.02 0.04 0.08 0.11 0.08 0.05 0.04 0.03 0.04 0.05 0.04 0.01
0.49 0.33 0.27 0.07 0.02 0.01 0.00 0.00 0.00 0.00 0.00 0.00 0.00 0.00 0.00 0.00 0.00 0.00 0.00 0.05 0.00 0.00 0.00 0.00 0.00 0.05 0.36 0.23 0.02 0.01 0.03 0.05 0.05 0.01 0.03 0.05 0.03 0.02 0.01 0.01 0.00 0.01 0.00 0.00
0.40 0.14 0.23 0.04 0.00 0.00 0.01 0.02 0.00 0.00 0.00 0.00 0.00 0.00 0.00 0.00 0.00 0.00 0.00 0.02 0.02 0.00 0.00 0.00 0.00 0.00 0.05 0.32 0.10 0.05 0.06 0.04 0.02 0.01 0.02 0.01 0.02 0.03 0.01 0.00 0.00 0.00 0.00 0.00
0.23 0.12 0.10 0.06 0.00 0.00 0.02 0.01 0.00 0.00 0.00 0.00 0.00 0.00 0.00 0.00 0.00 0.00 0.00 0.00 0.00 0.00 0.00 0.00 0.01 0.01 0.00 0.04 0.06 0.04 0.02 0.00 0.00 0.00 0.01 0.01 0.01 0.00 0.02 0.04 0.03 0.01 0.00 0.00
0.15 0.23 0.11 0.01 0.00 0.00 0.00 0.00 0.00 0.00 0.00 0.00 0.00 0.00 0.00 0.00 0.00 0.00 0.02 0.01 0.02 0.01 0.01 0.01 0.01 0.04 0.02 0.01 0.00 0.00 0.00 0.00 0.00 0.00 0.00 0.00 0.00 0.00 0.00 0.01 0.04 0.05 0.03 0.01
0.06 0.06 0.02 0.00 0.00 0.00 0.00 0.00 0.00 0.00 0.00 0.00 0.00 0.00 0.00 0.00 0.01 0.04 0.08 0.16 0.07 0.06 0.06 0.06 0.06 0.08 0.07 0.02 0.01 0.00 0.00 0.00 0.00 0.00 0.00 0.00 0.00 0.00 0.00 0.00 0.00 0.00 0.01 0.02
0.00 0.00 0.00 0.00 0.00 0.01 0.00 0.00 0.00 0.00 0.00 0.00 0.00 0.00 0.00 0.01 0.02 0.01 0.03 0.24 0.25 0.11 0.10 0.14 0.15 0.12 0.10 0.04 0.01 0.00 0.00 0.00 0.00 0.00 0.01 0.01 0.01 0.00 0.00 0.00 0.00 0.00 0.00 0.00
0.01 0.02 0.04 0.01 0.01 0.01 0.02 0.03 0.05 0.04 0.02 0.01 0.02 0.01 0.01 0.01 0.02 0.02 0.02 0.08 0.28 0.27 0.24 0.21 0.19 0.16 0.11 0.04 0.00 0.00 0.00 0.00 0.00 0.00 0.00 0.00 0.00 0.00 0.00 0.00 0.00 0.00 0.00 0.00
0.01 0.01 0.02 0.02 0.02 0.02 0.01 0.01 0.01 0.01 0.00 0.01 0.00 0.01 0.03 0.01 0.01 0.01 0.01 0.01 0.11 0.19 0.18 0.12 0.12 0.13 0.07 0.03 0.00 0.00 0.00 0.00 0.00 0.00 0.00 0.00 0.00 0.00 0.00 0.00 0.00 0.00 0.00 0.00
0.00 0.00 0.00 0.00 0.00 0.00 0.00 0.00 0.00 0.00 0.01 0.00 0.00 0.00 0.00 0.02 0.02 0.04 0.07 0.06 0.08 0.13 0.11 0.12 0.10 0.07 0.05 0.03 0.01 0.00 0.00 0.00 0.00 0.00 0.00 0.00 0.00 0.00 0.00 0.00 0.00 0.00 0.00 0.00
0.00 0.00 0.00 0.00 0.00 0.00 0.00 0.00 0.00 0.00 0.00 0.00 0.00 0.00 0.00 0.01 0.02 0.07 0.16 0.11 0.07 0.03 0.03 0.01 0.02 0.03 0.03 0.02 0.01 0.00 0.00 0.00 0.00 0.00 0.00 0.00 0.00 0.00 0.00 0.00 0.00 0.00 0.00 0.00
0.00 0.00 0.00 0.00 0.00 0.00 0.00 0.01 0.01 0.01 0.00 0.00 0.00 0.00 0.00 0.01 0.04 0.11 0.16 0.22 0.25 0.07 0.01 0.00 0.00 0.00 0.00 0.00 0.00 0.00 0.00 0.00 0.00 0.00 0.00 0.00 0.00 0.00 0.00 0.00 0.00 0.00 0.00 0.00
0.00 0.00 0.00 0.00 0.00 0.00 0.00 0.01 0.01 0.00 0.00 0.00 0.00 0.01 0.00 0.00 0.01 0.02 0.08 0.17 0.24 0.20 0.10 0.03 0.00 0.00 0.00 0.00 0.00 0.00 0.00 0.00 0.00 0.00 0.00 0.00 0.00 0.00 0.00 0.00 0.00 0.01 0.01 0.02
0.00 0.00 0.00 0.00 0.00 0.00 0.00 0.00 0.00 0.00 0.00 0.00 0.00 0.00 0.00 0.00 0.00 0.00 0.01 0.02 0.02 0.04 0.06 0.05 0.01 0.00 0.02 0.01 0.01 0.01 0.00 0.00 0.00 0.00 0.00 0.00 0.00 0.00 0.00 0.00 0.00 0.01 0.01 0.02
0.00 0.00 0.00 0.00 0.00 0.00 0.00 0.00 0.00 0.00 0.00 0.00 0.00 0.00 0.00 0.00 0.00 0.00 0.00 0.00 0.01 0.01 0.01 0.01 0.00 0.00 0.01 0.01 0.01 0.01 0.01 0.00 0.00 0.00 0.00 0.00 0.00 0.00 0.00 0.00 0.00 0.00 0.01 0.01
0.00 0.00 0.00 0.00 0.00 0.00 0.00 0.00 0.00 0.00 0.00 0.00 0.00 0.00 0.01 0.00 0.01 0.00 0.00 0.00 0.01 0.01 0.01 0.00 0.00 0.00 0.00 0.00 0.00 0.00 0.00 0.00 0.00 0.00 0.00 0.00 0.00 0.00 0.00 0.00 0.00 0.00 0.01 0.00
0.00 0.00 0.00 0.00 0.00 0.00 0.01 0.01 0.01 0.00 0.01 0.00 0.00 0.00 0.01 0.01 0.01 0.01 0.00 0.00 0.00 0.00 0.00 0.01 0.00 0.00 0.00 0.00 0.00 0.00 0.00 0.00 0.00 0.00 0.00 0.00 0.00 0.00 0.00 0.01 0.01 0.01 0.01 0.01
0.00 0.00 0.00 0.00 0.00 0.01 0.03 0.02 0.02 0.01 0.01 0.03 0.03 0.00 0.02 0.02 0.01 0.01 0.01 0.01 0.00 0.00 0.00 0.00 0.00 0.00 0.00 0.00 0.00 0.00 0.00 0.00 0.00 0.00 0.00 0.00 0.00 0.00 0.00 0.00 0.01 0.01 0.01 0.01

GFSNGP_prec_precacc12_198.txt.gz
Total_Precipitation_Accumulation
0.02 0.01 0.01 0.00 0.00 0.00 0.00 0.01 0.13 0.10 0.05 0.01 0.00 0.00 0.01 0.00 0.00 0.00 0.00 0.00 0.02 0.06 0.13 0.22 0.38 0.48 0.60 0.50 0.40 0.52 0.54 0.42 0.31 0.20 0.14 0.17 0.18 0.10 0.03 0.01 0.00 0.00 0.00 0.00
0.03 0.01 0.03 0.05 0.03 0.01 0.02 0.01 0.02 0.02 0.03 0.01 0.00 0.00 0.00 0.00 0.00 0.00 0.00 0.00 0.00 0.00 0.02 0.09 0.16 0.31 0.42 0.53 0.52 0.55 0.57 0.49 0.38 0.24 0.13 0.09 0.08 0.04 0.01 0.01 0.00 0.00 0.00 0.00
0.11 0.03 0.10 0.13 0.04 0.02 0.04 0.02 0.05 0.05 0.02 0.00 0.00 0.01 0.01 0.01 0.01 0.02 0.01 0.00 0.02 0.02 0.01 0.02 0.05 0.11 0.27 0.41 0.44 0.66 0.54 0.39 0.21 0.15 0.07 0.03 0.04 0.06 0.08 0.08 0.04 0.02 0.02 0.01
0.17 0.10 0.19 0.03 0.02 0.08 0.10 0.01 0.08 0.09 0.03 0.05 0.07 0.02 0.05 0.04 0.08 0.07 0.03 0.02 0.07 0.10 0.08 0.06 0.01 0.02 0.16 0.37 0.42 0.42 0.35 0.43 0.20 0.06 0.01 0.00 0.00 0.02 0.05 0.08 0.09 0.12 0.10 0.07
0.21 0.13 0.04 0.01 0.07 0.15 0.13 0.07 0.14 0.18 0.16 0.20 0.07 0.08 0.11 0.09 0.07 0.02 0.00 0.00 0.00 0.00 0.00 0.00 0.00 0.02 0.03 0.06 0.26 0.43 0.32 0.28 0.26 0.04 0.00 0.00 0.00 0.00 0.01 0.02 0.03 0.05 0.06 0.07
0.26 0.26 0.09 0.01 0.03 0.03 0.06 0.13 0.21 0.47 0.38 0.25 0.15 0.17 0.11 0.03 0.01 0.00 0.00 0.00 0.00 0.00 0.00 0.00 0.00 0.01 0.02 0.02 0.07 0.18 0.30 0.22 0.22 0.12 0.00 0.00 0.00 0.00 0.01 0.01 0.01 0.01 0.01 0.01
0.22 0.39 0.13 0.03 0.05 0.12 0.35 0.44 0.50 0.43 0.35 0.24 0.09 0.04 0.02 0.02 0.02 0.00 0.00 0.00 0.00 0.00 0.00 0.00 0.00 0.01 0.01 0.02 0.02 0.02 0.05 0.12 0.16 0.12 0.02 0.00 0.00 0.00 0.00 0.01 0.01 0.02 0.01 0.01
0.03 0.03 0.06 0.12 0.20 0.43 0.55 0.49 0.23 0.10 0.03 0.01 0.00 0.00 0.00 0.00 0.00 0.00 0.00 0.00 0.00 0.00 0.00 0.00 0.00 0.00 0.00 0.01 0.01 0.00 0.00 0.01 0.07 0.09 0.13 0.08 0.08 0.03 0.03 0.03 0.05 0.06 0.04 0.02
0.05 0.10 0.14 0.21 0.51 0.38 0.51 0.51 0.20 0.04 0.00 0.00 0.00 0.00 0.00 0.00 0.00 0.00 0.00 0.00 0.00 0.00 0.00 0.01 0.02 0.01 0.00 0.00 0.00 0.00 0.01 0.01 0.02 0.07 0.15 0.10 0.21 0.16 0.07 0.06 0.07 0.08 0.05 0.01
0.16 0.10 0.32 0.28 0.16 0.22 0.30 0.18 0.05 0.01 0.00 0.00 0.00 0.00 0.00 0.00 0.00 0.00 0.00 0.00 0.00 0.00 0.00 0.00 0.03 0.16 0.09 0.02 0.01 0.00 0.01 0.02 0.02 0.05 0.13 0.12 0.11 0.10 0.09 0.07 0.06 0.05 0.04 0.02
0.28 0.27 0.24 0.04 0.07 0.05 0.01 0.00 0.01 0.00 0.00 0.00 0.00 0.00 0.00 0.00 0.00 0.00 0.00 0.00 0.00 0.00 0.00 0.00 0.00 0.05 0.36 0.23 0.04 0.01 0.03 0.05 0.07 0.02 0.05 0.11 0.13 0.07 0.02 0.02 0.01 0.01 0.00 0.00
0.23 0.14 0.33 0.07 0.00 0.00 0.01 0.03 0.01 0.00 0.00 0.00 0.00 0.00 0.00 0.00 0.00 0.00 0.00 0.00 0.00 0.00 0.00 0.00 0.00 0.00 0.05 0.37 0.23 0.08 0.08 0.07 0.14 0.09 0.05 0.05 0.07 0.12 0.07 0.01 0.00 0.00 0.00 0.00
0.24 0.13 0.11 0.08 0.01 0.00 0.02 0.01 0.00 0.00 0.00 0.00 0.00 0.00 0.00 0.00 0.00 0.00 0.00 0.00 0.00 0.01 0.00 0.00 0.01 0.01 0.00 0.07 0.31 0.20 0.11 0.10 0.11 0.18 0.06 0.02 0.01 0.01 0.04 0.06 0.03 0.01 0.00 0.00
0.16 0.31 0.18 0.02 0.01 0.00 0.01 0.00 0.01 0.00 0.00 0.00 0.00 0.00 0.00 0.00 0.00 0.00 0.00 0.00 0.01 0.00 0.00 0.01 0.01 0.04 0.02 0.01 0.09 0.20 0.12 0.09 0.06 0.06 0.03 0.01 0.00 0.00 0.00 0.01 0.05 0.05 0.03 0.01
0.10 0.10 0.06 0.01 0.00 0.00 0.00 0.01 0.00 0.00 0.00 0.00 0.00 0.00 0.00 0.00 0.01 0.02 0.02 0.04 0.03 0.05 0.06 0.06 0.06 0.08 0.07 0.03 0.03 0.08 0.04 0.02 0.01 0.01 0.01 0.01 0.01 0.01 0.00 0.00 0.00 0.00 0.02 0.03
0.01 0.01 0.00 0.00 0.00 0.00 0.00 0.01 0.01 0.00 0.00 0.00 0.00 0.00 0.00 0.01 0.02 0.01 0.01 0.20 0.23 0.10 0.10 0.15 0.16 0.13 0.12 0.07 0.03 0.04 0.02 0.00 0.00 0.00 0.02 0.02 0.01 0.01 0.00 0.00 0.00 0.00 0.00 0.01
0.01 0.01 0.00 0.00 0.01 0.01 0.01 0.02 0.03 0.03 0.01 0.01 0.02 0.01 0.01 0.00 0.02 0.02 0.01 0.06 0.27 0.27 0.26 0.27 0.26 0.24 0.21 0.15 0.03 0.01 0.00 0.00 0.00 0.00 0.01 0.00 0.00 0.00 0.00 0.00 0.00 0.00 0.00 0.00
0.00 0.01 0.01 0.01 0.02 0.01 0.01 0.01 0.01 0.01 0.01 0.01 0.00 0.00 0.00 0.00 0.01 0.02 0.02 0.01 0.13 0.21 0.19 0.20 0.25 0.22 0.20 0.14 0.06 0.03 0.00 0.00 0.00 0.01 0.01 0.01 0.00 0.00 0.00 0.00 0.00 0.00 0.00 0.00
0.00 0.00 0.00 0.00 0.00 0.00 0.01 0.01 0.00 0.00 0.01 0.00 0.00 0.00 0.00 0.01 0.02 0.05 0.08 0.11 0.19 0.19 0.14 0.17 0.21 0.17 0.13 0.10 0.08 0.04 0.01 0.00 0.00 0.00 0.00 0.00 0.00 0.00 0.00 0.00 0.00 0.00 0.00 0.00
0.00 0.00 0.00 0.00 0.00 0.00 0.00 0.00 0.00 0.00 0.00 0.00 0.00 0.00 0.00 0.01 0.02 0.07 0.17 0.20 0.18 0.11 0.06 0.04 0.09 0.11 0.12 0.10 0.07 0.05 0.04 0.02 0.01 0.00 0.00 0.00 0.00 0.00 0.00 0.00 0.00 0.00 0.00 0.00
0.00 0.00 0.00 0.00 0.00 0.00 0.00 0.01 0.01 0.01 0.00 0.00 0.00 0.00 0.00 0.00 0.03 0.08 0.11 0.15 0.21 0.16 0.09 0.03 0.01 0.02 0.03 0.03 0.03 0.02 0.01 0.01 0.01 0.00 0.00 0.00 0.00 0.00 0.00 0.00 0.00 0.00 0.00 0.00
0.00 0.00 0.00 0.00 0.00 0.00 0.00 0.01 0.01 0.00 0.00 0.00 0.00 0.00 0.00 0.00 0.00 0.01 0.06 0.15 0.22 0.24 0.24 0.10 0.00 0.00 0.00 0.00 0.00 0.00 0.00 0.00 0.00 0.00 0.00 0.00 0.00 0.00 0.00 0.00 0.00 0.00 0.00 0.01
0.00 0.00 0.00 0.00 0.00 0.00 0.00 0.00 0.00 0.00 0.00 0.00 0.01 0.00 0.00 0.00 0.00 0.01 0.01 0.01 0.02 0.05 0.11 0.14 0.05 0.01 0.03 0.01 0.01 0.01 0.00 0.00 0.00 0.00 0.00 0.00 0.00 0.00 0.00 0.00 0.00 0.00 0.00 0.01
0.00 0.00 0.00 0.00 0.00 0.00 0.00 0.00 0.00 0.00 0.00 0.00 0.00 0.01 0.01 0.01 0.00 0.00 0.00 0.00 0.01 0.01 0.01 0.02 0.04 0.04 0.05 0.03 0.02 0.01 0.01 0.00 0.00 0.00 0.00 0.00 0.00 0.00 0.00 0.00 0.00 0.00 0.00 0.01
0.00 0.00 0.00 0.00 0.00 0.00 0.00 0.00 0.00 0.00 0.00 0.00 0.00 0.00 0.01 0.02 0.03 0.01 0.01 0.00 0.01 0.01 0.01 0.00 0.01 0.02 0.03 0.03 0.02 0.01 0.01 0.00 0.00 0.00 0.00 0.00 0.00 0.00 0.00 0.00 0.00 0.00 0.00 0.00
0.00 0.00 0.00 0.00 0.00 0.00 0.00 0.01 0.01 0.00 0.01 0.01 0.00 0.01 0.01 0.02 0.02 0.02 0.02 0.01 0.01 0.01 0.01 0.01 0.01 0.00 0.00 0.01 0.01 0.01 0.00 0.00 0.00 0.00 0.00 0.00 0.00 0.00 0.00 0.00 0.00 0.01 0.01 0.01
0.00 0.00 0.00 0.00 0.00 0.00 0.01 0.02 0.03 0.02 0.02 0.04 0.03 0.01 0.02 0.03 0.02 0.02 0.03 0.03 0.03 0.02 0.01 0.01 0.01 0.01 0.00 0.00 0.00 0.00 0.00 0.00 0.00 0.00 0.00 0.00 0.00 0.00 0.00 0.00 0.01 0.01 0.01 0.01

GFSNGP_prec_precacc12_201.txt.gz
Total_Precipitation_Accumulation
0.01 0.01 0.01 0.00 0.00 0.00 0.00 0.00 0.03 0.03 0.04 0.02 0.01 0.01 0.00 0.00 0.01 0.01 0.00 0.00 0.01 0.03 0.12 0.22 0.40 0.58 0.67 0.54 0.41 0.52 0.55 0.46 0.40 0.32 0.28 0.33 0.36 0.28 0.20 0.20 0.17 0.14 0.10 0.06
0.01 0.00 0.00 0.00 0.00 0.00 0.01 0.01 0.03 0.06 0.06 0.02 0.01 0.00 0.00 0.00 0.01 0.03 0.03 0.02 0.01 0.02 0.09 0.16 0.26 0.43 0.46 0.55 0.57 0.59 0.61 0.57 0.52 0.48 0.43 0.37 0.33 0.29 0.19 0.19 0.17 0.14 0.13 0.08
0.06 0.00 0.01 0.01 0.00 0.01 0.04 0.02 0.09 0.11 0.06 0.01 0.01 0.02 0.02 0.03 0.05 0.13 0.09 0.03 0.03 0.06 0.05 0.03 0.07 0.13 0.30 0.41 0.45 0.75 0.63 0.53 0.40 0.42 0.46 0.40 0.32 0.27 0.20 0.16 0.10 0.07 0.07 0.05
0.08 0.03 0.06 0.01 0.02 0.09 0.11 0.02 0.07 0.11 0.06 0.06 0.13 0.14 0.11 0.08 0.11 0.07 0.03 0.02 0.06 0.10 0.09 0.06 0.01 0.03 0.14 0.35 0.45 0.50 0.49 0.64 0.45 0.37 0.36 0.32 0.30 0.18 0.13 0.13 0.12 0.15 0.12 0.08
0.13 0.09 0.03 0.01 0.09 0.16 0.13 0.07 0.18 0.28 0.17 0.21 0.09 0.19 0.19 0.08 0.07 0.03 0.00 0.00 0.00 0.00 0.00 0.00 0.00 0.00 0.00 0.04 0.28 0.56 0.54 0.49 0.52 0.29 0.19 0.20 0.18 0.10 0.06 0.04 0.04 0.07 0.07 0.07
0.14 0.23 0.09 0.01 0.04 0.03 0.05 0.18 0.29 0.52 0.47 0.37 0.26 0.37 0.19 0.04 0.04 0.04 0.00 0.00 0.00 0.00 0.00 0.00 0.00 0.00 0.00 0.01 0.08 0.31 0.69 0.47 0.47 0.35 0.09 0.09 0.09 0.06 0.04 0.02 0.01 0.01 0.01 0.01
0.10 0.16 0.04 0.03 0.06 0.12 0.34 0.48 0.51 0.46 0.45 0.35 0.18 0.12 0.06 0.03 0.03 0.01 0.00 0.00 0.00 0.00 0.00 0.00 0.00 0.00 0.00 0.01 0.02 0.06 0.32 0.52 0.44 0.40 0.12 0.06 0.06 0.04 0.02 0.01 0.00 0.01 0.01 0.01
0.03 0.03 0.04 0.08 0.17 0.41 0.53 0.50 0.27 0.21 0.11 0.03 0.01 0.01 0.02 0.00 0.00 0.00 0.00 0.00 0.00 0.00 0.00 0.00 0.00 0.00 0.00 0.01 0.00 0.00 0.03 0.17 0.35 0.32 0.22 0.12 0.10 0.03 0.01 0.01 0.02 0.03 0.03 0.02
0.06 0.04 0.05 0.16 0.47 0.35 0.54 0.61 0.27 0.14 0.03 0.02 0.00 0.01 0.00 0.00 0.00 0.00 0.00 0.00 0.00 0.00 0.00 0.00 0.00 0.00 0.00 0.00 0.00 0.00 0.01 0.02 0.14 0.26 0.26 0.12 0.22 0.15 0.04 0.02 0.01 0.02 0.02 0.01
0.06 0.03 0.16 0.21 0.13 0.25 0.40 0.29 0.10 0.04 0.02 0.01 0.01 0.00 0.00 0.00 0.00 0.00 0.00 0.00 0.00 0.00 0.00 0.00 0.02 0.16 0.09 0.02 0.01 0.00 0.01 0.02 0.02 0.10 0.27 0.19 0.13 0.12 0.07 0.04 0.02 0.01 0.02 0.02
0.08 0.07 0.12 0.04 0.13 0.14 0.05 0.01 0.02 0.01 0.00 0.00 0.00 0.00 0.00 0.00 0.00 0.00 0.00 0.00 0.00 0.00 0.00 0.00 0.00 0.05 0.36 0.23 0.04 0.01 0.03 0.05 0.07 0.02 0.09 0.25 0.17 0.11 0.04 0.02 0.00 0.00 0.00 0.00
0.13 0.10 0.31 0.07 0.01 0.03 0.03 0.04 0.02 0.00 0.00 0.00 0.00 0.00 0.00 0.00 0.00 0.00 0.00 0.00 0.00 0.00 0.00 0.00 0.00 0.00 0.05 0.37 0.23 0.08 0.09 0.07 0.15 0.10 0.06 0.15 0.21 0.19 0.12 0.04 0.00 0.00 0.00 0.00
0.19 0.12 0.12 0.08 0.01 0.02 0.04 0.02 0.01 0.01 0.01 0.00 0.00 0.00 0.00 0.00 0.00 0.00 0.00 0.01 0.01 0.05 0.01 0.00 0.02 0.02 0.00 0.07 0.31 0.22 0.12 0.14 0.14 0.20 0.09 0.04 0.10 0.10 0.09 0.12 0.06 0.01 0.00 0.00
0.16 0.33 0.21 0.03 0.02 0.01 0.01 0.00 0.01 0.01 0.01 0.00 0.00 0.00 0.00 0.00 0.00 0.00 0.00 0.00 0.01 0.00 0.01 0.01 0.04 0.06 0.02 0.01 0.10 0.26 0.18 0.15 0.12 0.13 0.14 0.06 0.02 0.03 0.01 0.02 0.08 0.07 0.03 0.01
0.15 0.14 0.10 0.02 0.00 0.00 0.00 0.00 0.00 0.00 0.00 0.00 0.00 0.00 0.00 0.00 0.01 0.02 0.02 0.01 0.01 0.03 0.04 0.03 0.03 0.08 0.07 0.03 0.03 0.14 0.23 0.15 0.09 0.10 0.14 0.11 0.04 0.02 0.01 0.00 0.00 0.01 0.02 0.04
0.01 0.02 0.01 0.00 0.00 0.00 0.00 0.01 0.01 0.00 0.00 0.00 0.00 0.00 0.01 0.01 0.02 0.01 0.00 0.01 0.05 0.05 0.07 0.13 0.18 0.15 0.13 0.07 0.05 0.12 0.21 0.15 0.06 0.04 0.08 0.08 0.04 0.02 0.01 0.00 0.00 0.00 0.01 0.01
0.01 0.01 0.01 0.00 0.01 0.01 0.01 0.02 0.03 0.03 0.01 0.00 0.01 0.00 0.01 0.01 0.02 0.02 0.01 0.02 0.16 0.22 0.25 0.29 0.31 0.28 0.25 0.20 0.13 0.12 0.10 0.08 0.03 0.02 0.02 0.01 0.01 0.01 0.00 0.00 0.00 0.00 0.01 0.01
0.00 0.01 0.01 0.02 0.02 0.01 0.01 0.01 0.01 0.01 0.01 0.01 0.00 0.00 0.00 0.00 0.01 0.01 0.02 0.01 0.11 0.24 0.21 0.23 0.35 0.32 0.28 0.23 0.16 0.16 0.08 0.02 0.02 0.01 0.01 0.02 0.01 0.00 0.00 0.00 0.00 0.00 0.01 0.00
0.00 0.00 0.00 0.00 0.00 0.00 0.00 0.00 0.00 0.01 0.01 0.01 0.00 0.00 0.00 0.01 0.02 0.05 0.08 0.11 0.21 0.25 0.16 0.18 0.29 0.32 0.22 0.18 0.19 0.14 0.09 0.02 0.01 0.01 0.01 0.01 0.00 0.00 0.00 0.00 0.01 0.01 0.00 0.00
0.00 0.00 0.00 0.00 0.00 0.00 0.00 0.00 0.00 0.00 0.00 0.00 0.00 0.00 0.00 0.01 0.02 0.07 0.17 0.20 0.19 0.14 0.09 0.06 0.13 0.20 0.25 0.22 0.18 0.13 0.12 0.07 0.02 0.01 0.01 0.01 0.01 0.00 0.00 0.00 0.00 0.01 0.01 0.00
0.01 0.00 0.00 0.00 0.00 0.00 0.00 0.00 0.00 0.00 0.00 0.00 0.00 0.00 0.00 0.00 0.02 0.06 0.10 0.15 0.21 0.16 0.11 0.07 0.03 0.06 0.10 0.13 0.14 0.12 0.10 0.08 0.05 0.03 0.01 0.01 0.01 0.01 0.00 0.01 0.01 0.01 0.01 0.01
0.01 0.00 0.00 0.00 0.00 0.00 0.00 0.00 0.00 0.00 0.00 0.01 0.00 0.00 0.01 0.00 0.00 0.01 0.06 0.15 0.21 0.23 0.24 0.14 0.05 0.03 0.03 0.05 0.05 0.07 0.07 0.05 0.04 0.03 0.02 0.01 0.01 0.01 0.01 0.01 0.01 0.01 0.01 0.01
0.00 0.00 0.00 0.00 0.00 0.00 0.00 0.00 0.00 0.00 0.00 0.00 0.01 0.01 0.01 0.00 0.00 0.01 0.01 0.01 0.01 0.04 0.11 0.17 0.15 0.09 0.07 0.03 0.02 0.02 0.02 0.02 0.02 0.02 0.01 0.01 0.01 0.01 0.01 0.01 0.01 0.01 0.01 0.01
0.00 0.00 0.00 0.00 0.00 0.00 0.00 0.00 0.00 0.00 0.00 0.00 0.00 0.01 0.01 0.01 0.01 0.00 0.00 0.01 0.01 0.01 0.01 0.03 0.06 0.08 0.09 0.04 0.02 0.01 0.01 0.01 0.01 0.01 0.01 0.01 0.01 0.01 0.01 0.01 0.01 0.01 0.01 0.00
0.00 0.00 0.00 0.00 0.00 0.00 0.00 0.00 0.00 0.00 0.00 0.00 0.00 0.00 0.01 0.02 0.04 0.01 0.01 0.01 0.01 0.01 0.01 0.01 0.02 0.05 0.07 0.06 0.03 0.01 0.01 0.00 0.00 0.00 0.00 0.00 0.00 0.00 0.01 0.01 0.01 0.00 0.01 0.00
0.00 0.00 0.00 0.00 0.00 0.00 0.01 0.01 0.01 0.00 0.01 0.01 0.00 0.01 0.01 0.02 0.03 0.03 0.02 0.02 0.01 0.02 0.02 0.02 0.02 0.02 0.02 0.03 0.03 0.02 0.01 0.00 0.00 0.00 0.00 0.00 0.00 0.00 0.00 0.01 0.00 0.00 0.00 0.00
0.00 0.00 0.00 0.00 0.00 0.00 0.00 0.01 0.01 0.02 0.02 0.04 0.04 0.01 0.03 0.03 0.03 0.03 0.04 0.04 0.04 0.03 0.02 0.02 0.03 0.02 0.02 0.01 0.01 0.01 0.01 0.01 0.00 0.00 0.00 0.00 0.00 0.00 0.00 0.00 0.00 0.01 0.01 0.01

GFSNGP_prec_precacc12_204.txt.gz
Total_Precipitation_Accumulation
0.00 0.00 0.00 0.00 0.00 0.00 0.00 0.00 0.01 0.00 0.00 0.00 0.02 0.03 0.01 0.00 0.01 0.01 0.00 0.02 0.09 0.03 0.02 0.03 0.06 0.28 0.65 0.69 0.59 0.62 0.55 0.46 0.40 0.34 0.31 0.40 0.46 0.36 0.30 0.30 0.33 0.35 0.30 0.17
0.00 0.00 0.00 0.00 0.00 0.00 0.00 0.00 0.02 0.06 0.06 0.02 0.02 0.01 0.00 0.01 0.01 0.03 0.07 0.11 0.03 0.02 0.10 0.14 0.14 0.25 0.40 0.53 0.54 0.60 0.62 0.58 0.53 0.51 0.48 0.48 0.51 0.42 0.30 0.29 0.23 0.23 0.32 0.28
0.02 0.00 0.01 0.00 0.00 0.00 0.02 0.02 0.08 0.13 0.07 0.02 0.01 0.02 0.04 0.04 0.06 0.17 0.18 0.09 0.03 0.06 0.05 0.03 0.05 0.09 0.27 0.40 0.40 0.74 0.63 0.53 0.41 0.45 0.50 0.48 0.47 0.46 0.40 0.30 0.21 0.19 0.18 0.17
0.04 0.02 0.04 0.00 0.01 0.07 0.09 0.02 0.05 0.12 0.06 0.06 0.13 0.15 0.23 0.29 0.22 0.11 0.06 0.02 0.06 0.08 0.08 0.06 0.01 0.03 0.15 0.35 0.44 0.49 0.50 0.67 0.50 0.42 0.43 0.43 0.47 0.40 0.37 0.33 0.24 0.22 0.18 0.15
0.06 0.05 0.02 0.01 0.08 0.14 0.12 0.07 0.17 0.29 0.18 0.22 0.10 0.21 0.37 0.29 0.17 0.06 0.01 0.00 0.00 0.00 0.00 0.00 0.00 0.00 0.00 0.04 0.28 0.56 0.60 0.65 0.65 0.42 0.30 0.33 0.37 0.30 0.25 0.23 0.20 0.17 0.13 0.11
0.06 0.13 0.06 0.01 0.02 0.03 0.04 0.16 0.30 0.55 0.47 0.42 0.33 0.45 0.25 0.07 0.06 0.05 0.01 0.00 0.01 0.00 0.00 0.00 0.00 0.00 0.00 0.00 0.08 0.31 0.74 0.60 0.58 0.52 0.27 0.25 0.23 0.21 0.21 0.15 0.12 0.10 0.08 0.06
0.11 0.15 0.08 0.02 0.03 0.05 0.27 0.43 0.48 0.44 0.45 0.45 0.31 0.22 0.09 0.05 0.04 0.01 0.00 0.00 0.00 0.00 0.00 0.00 0.00 0.00 0.00 0.00 0.01 0.05 0.35 0.66 0.60 0.58 0.34 0.27 0.22 0.18 0.15 0.15 0.12 0.08 0.06 0.04
0.04 0.06 0.04 0.04 0.07 0.26 0.32 0.34 0.26 0.23 0.16 0.16 0.07 0.04 0.06 0.01 0.00 0.00 0.00 0.00 0.00 0.00 0.00 0.00 0.00 0.00 0.00 0.00 0.00 0.00 0.04 0.26 0.55 0.50 0.33 0.24 0.22 0.17 0.14 0.09 0.07 0.05 0.04 0.02
0.06 0.04 0.01 0.04 0.26 0.24 0.46 0.58 0.27 0.17 0.06 0.07 0.02 0.02 0.01 0.00 0.00 0.00 0.00 0.00 0.00 0.00 0.00 0.00 0.00 0.00 0.00 0.00 0.00 0.00 0.01 0.04 0.23 0.47 0.34 0.17 0.32 0.25 0.11 0.06 0.03 0.02 0.01 0.01
0.02 0.00 0.01 0.04 0.06 0.18 0.38 0.30 0.12 0.07 0.05 0.01 0.01 0.01 0.00 0.00 0.00 0.00 0.00 0.00 0.00 0.00 0.00 0.00 0.00 0.01 0.04 0.02 0.01 0.00 0.01 0.02 0.03 0.20 0.50 0.35 0.24 0.19 0.12 0.06 0.02 0.00 0.00 0.01
0.03 0.04 0.05 0.03 0.13 0.15 0.06 0.02 0.04 0.02 0.01 0.01 0.00 0.00 0.00 0.00 0.00 0.00 0.00 0.00 0.00 0.00 0.00 0.00 0.00 0.01 0.26 0.22 0.03 0.01 0.03 0.05 0.07 0.04 0.16 0.42 0.32 0.19 0.06 0.01 0.00 0.00 0.00 0.00
0.08 0.08 0.25 0.06 0.01 0.03 0.06 0.06 0.03 0.01 0.01 0.00 0.00 0.00 0.00 0.00 0.00 0.00 0.00 0.00 0.00 0.00 0.00 0.00 0.00 0.02 0.05 0.37 0.23 0.08 0.09 0.07 0.15 0.11 0.09 0.21 0.36 0.36 0.27 0.07 0.00 0.00 0.00 0.00
0.06 0.04 0.10 0.08 0.01 0.03 0.06 0.02 0.01 0.01 0.01 0.00 0.00 0.00 0.00 0.00 0.00 0.00 0.00 0.01 0.01 0.05 0.02 0.00 0.01 0.04 0.02 0.07 0.31 0.22 0.13 0.14 0.15 0.23 0.13 0.10 0.20 0.22 0.21 0.22 0.07 0.00 0.00 0.00
0.07 0.26 0.21 0.04 0.04 0.02 0.01 0.00 0.01 0.01 0.01 0.00 0.00 0.00 0.00 0.00 0.00 0.00 0.00 0.00 0.01 0.01 0.02 0.01 0.03 0.04 0.02 0.01 0.10 0.26 0.18 0.15 0.13 0.17 0.19 0.12 0.10 0.15 0.15 0.09 0.11 0.11 0.05 0.01
0.12 0.15 0.11 0.03 0.00 0.00 0.00 0.00 0.00 0.00 0.00 0.00 0.00 0.00 0.00 0.00 0.01 0.02 0.02 0.01 0.00 0.00 0.00 0.01 0.02 0.03 0.05 0.02 0.03 0.14 0.23 0.16 0.12 0.14 0.18 0.18 0.14 0.09 0.11 0.11 0.05 0.02 0.05 0.06
0.01 0.03 0.02 0.00 0.00 0.00 0.00 0.01 0.01 0.00 0.00 0.00 0.00 0.00 0.00 0.00 0.01 0.01 0.00 0.00 0.00 0.01 0.04 0.08 0.10 0.09 0.13 0.07 0.07 0.15 0.25 0.22 0.13 0.10 0.15 0.19 0.18 0.11 0.07 0.07 0.04 0.01 0.02 0.03
0.01 0.01 0.01 0.00 0.01 0.00 0.00 0.01 0.03 0.03 0.01 0.00 0.01 0.00 0.00 0.00 0.01 0.01 0.00 0.00 0.00 0.05 0.11 0.19 0.23 0.26 0.28 0.26 0.21 0.21 0.20 0.25 0.19 0.09 0.09 0.11 0.12 0.12 0.07 0.03 0.02 0.01 0.01 0.01
0.00 0.01 0.01 0.01 0.01 0.01 0.00 0.00 0.01 0.01 0.01 0.01 0.01 0.00 0.00 0.00 0.00 0.00 0.00 0.00 0.04 0.10 0.14 0.21 0.36 0.38 0.35 0.29 0.22 0.23 0.23 0.19 0.18 0.13 0.07 0.08 0.08 0.07 0.05 0.02 0.01 0.01 0.01 0.01
0.00 0.00 0.00 0.00 0.01 0.00 0.00 0.00 0.00 0.00 0.01 0.01 0.00 0.00 0.00 0.01 0.01 0.02 0.07 0.09 0.20 0.18 0.12 0.17 0.30 0.37 0.31 0.25 0.24 0.21 0.21 0.14 0.10 0.08 0.03 0.03 0.03 0.02 0.01 0.01 0.01 0.01 0.00 0.01
0.00 0.00 0.00 0.00 0.00 0.00 0.00 0.00 0.00 0.00 0.00 0.00 0.00 0.00 0.00 0.00 0.00 0.05 0.15 0.18 0.19 0.14 0.09 0.07 0.14 0.23 0.32 0.32 0.26 0.20 0.19 0.16 0.09 0.04 0.01 0.01 0.01 0.01 0.00 0.00 0.00 0.01 0.01 0.00
0.01 0.01 0.00 0.00 0.00 0.00 0.00 0.00 0.00 0.00 0.00 0.00 0.01 0.01 0.00 0.00 0.00 0.01 0.01 0.09 0.18 0.16 0.11 0.07 0.05 0.10 0.16 0.22 0.26 0.25 0.21 0.18 0.15 0.10 0.05 0.02 0.01 0.01 0.01 0.01 0.01 0.01 0.01 0.01
0.01 0.01 0.00 0.00 0.00 0.00 0.00 0.00 0.00 0.00 0.00 0.00 0.00 0.00 0.00 0.00 0.00 0.00 0.00 0.04 0.16 0.22 0.22 0.14 0.06 0.08 0.10 0.12 0.14 0.16 0.17 0.15 0.13 0.12 0.11 0.07 0.04 0.02 0.01 0.01 0.01 0.01 0.01 0.01
0.00 0.00 0.00 0.00 0.00 0.00 0.00 0.00 0.00 0.00 0.00 0.00 0.01 0.01 0.01 0.00 0.00 0.01 0.01 0.00 0.01 0.04 0.11 0.18 0.16 0.13 0.15 0.11 0.09 0.09 0.09 0.10 0.09 0.07 0.06 0.05 0.04 0.03 0.02 0.01 0.01 0.01 0.01 0.01
0.00 0.00 0.00 0.00 0.00 0.00 0.00 0.00 0.00 0.00 0.00 0.00 0.00 0.01 0.02 0.02 0.01 0.01 0.01 0.00 0.01 0.01 0.01 0.03 0.07 0.10 0.13 0.10 0.08 0.07 0.05 0.05 0.05 0.05 0.05 0.05 0.05 0.03 0.03 0.02 0.01 0.01 0.01 0.00
0.00 0.00 0.00 0.00 0.00 0.00 0.00 0.00 0.00 0.00 0.00 0.00 0.00 0.00 0.01 0.02 0.04 0.02 0.02 0.01 0.01 0.01 0.01 0.01 0.03 0.06 0.09 0.09 0.08 0.07 0.04 0.03 0.03 0.03 0.03 0.03 0.03 0.02 0.02 0.01 0.01 0.01 0.00 0.00
0.00 0.00 0.00 0.00 0.01 0.01 0.01 0.01 0.01 0.00 0.00 0.01 0.00 0.01 0.02 0.02 0.03 0.03 0.02 0.02 0.02 0.02 0.02 0.02 0.02 0.03 0.04 0.06 0.07 0.06 0.04 0.03 0.02 0.02 0.01 0.01 0.01 0.01 0.01 0.01 0.01 0.00 0.00 0.00
0.00 0.00 0.00 0.00 0.00 0.01 0.01 0.01 0.01 0.01 0.01 0.02 0.03 0.01 0.03 0.04 0.04 0.03 0.04 0.04 0.04 0.04 0.02 0.02 0.04 0.04 0.04 0.05 0.05 0.05 0.05 0.04 0.02 0.01 0.00 0.00 0.00 0.00 0.00 0.00 0.00 0.00 0.00 0.00